CW5316 Weather Reports


Display with metric or nautical units.
time (UTC)temp
F
wind
direction
speed
MPH
gust
MPH
rain 1hr
in
rain 24hr
in
rain mn
in
humidity
%
barometer
mb
20260902211023 61 128 0.0 7.0 0.01 0.10 0.05 79 1005.1
20260902210524 62 0 1.0 8.0 0.01 0.10 0.05 74 1005.1
20260902210049 63 118 3.0 8.0 0.00 0.09 0.04 75 1005.0
20260902205524 63 0 0.0 2.0 0.00 0.09 0.04 73 1005.1
20260902205023 63 0 0.0 2.0 0.00 0.09 0.04 73 1004.8
20260902204545 63 240 0.0 2.0 0.00 0.09 0.04 72 1004.7
20260902204025 63 0 0.0 2.0 0.00 0.09 0.04 71 1004.8
20260902203524 63 117 0.0 3.0 0.00 0.09 0.04 71 1004.8
20260902203046 63 0 0.0 3.0 0.00 0.09 0.04 69 1004.7
20260902202523 63 0 0.0 3.0 0.00 0.09 0.04 69 1004.7
20260902202024 63 109 0.0 3.0 0.00 0.09 0.04 68 1004.7
20260902201547 63 0 0.0 1.0 0.00 0.09 0.04 69 1004.7
20260902201024 63 0 0.0 1.0 0.00 0.09 0.04 70 1004.8
20260902200523 63 0 0.0 2.0 0.00 0.09 0.04 68 1005.0
20260902200051 63 0 0.0 2.0 0.00 0.09 0.04 72 1004.9
20260902195524 63 265 0.0 2.0 0.00 0.09 0.04 77 1005.2
20260902195022 62 0 0.0 0.0 0.00 0.09 0.04 75 1005.2
20260902194548 62 0 0.0 0.0 0.00 0.09 0.04 73 1005.3
20260902194024 62 0 0.0 1.0 0.00 0.09 0.04 75 1005.4
20260902193523 62 0 0.0 1.0 0.00 0.09 0.04 71 1005.4
20260902193050 62 0 0.0 0.0 0.00 0.09 0.04 70 1005.5
20260902192524 62 0 0.0 0.0 0.00 0.09 0.04 72 1005.5
20260902192024 62 0 0.0 0.0 0.00 0.09 0.04 70 1005.5
20260902191547 62 0 0.0 0.0 0.00 0.09 0.04 71 1005.6
20260902191023 62 0 0.0 4.0 0.00 0.09 0.04 74 1005.7
20260902190526 63 0 0.0 4.0 0.00 0.09 0.04 68 1005.7
20260902190051 63 0 0.0 4.0 0.00 0.09 0.04 69 1005.7
20260902185523 63 0 0.0 1.0 0.00 0.09 0.04 71 1005.8
20260902185026 63 0 0.0 3.0 0.00 0.09 0.04 70 1005.9
20260902184548 63 0 0.0 3.0 0.00 0.09 0.04 69 1005.9
20260902184026 63 0 0.0 1.0 0.00 0.09 0.04 73 1005.9
20260902183528 63 0 0.0 2.0 0.00 0.09 0.04 72 1006.0
20260902183052 63 0 0.0 2.0 0.00 0.09 0.04 71 1006.2
20260902182523 63 0 0.0 1.0 0.00 0.09 0.04 74 1006.2
20260902182026 62 0 0.0 0.0 0.00 0.09 0.04 75 1006.3
20260902181548 62 0 0.0 1.0 0.00 0.09 0.04 73 1006.4
20260902181024 62 0 0.0 2.0 0.00 0.09 0.04 73 1006.5
20260902180523 62 0 0.0 2.0 0.00 0.09 0.04 71 1006.5
20260902180043 62 0 0.0 2.0 0.00 0.09 0.04 73 1006.6
20260902175525 62 0 0.0 2.0 0.00 0.09 0.04 72 1006.5
20260902175023 62 0 0.0 2.0 0.00 0.09 0.04 76 1006.6
20260902174552 62 0 0.0 2.0 0.00 0.09 0.04 77 1006.6
20260902174025 62 0 0.0 3.0 0.00 0.09 0.04 81 1006.6
20260902173523 61 0 0.0 3.0 0.00 0.09 0.04 76 1006.7
20260902173109 62 0 0.0 2.0 0.00 0.09 0.04 80 1006.8
20260902172525 61 0 0.0 1.0 0.00 0.09 0.04 81 1006.7
20260902172028 61 0 0.0 1.0 0.00 0.09 0.04 83 1006.8
20260902171559 61 0 0.0 1.0 0.00 0.09 0.04 85 1006.7
20260902171029 60 0 0.0 1.0 0.00 0.09 0.04 85 1006.7
20260902170525 60 0 0.0 2.0 0.00 0.09 0.04 83 1006.8
20260902170044 60 0 0.0 2.0 0.00 0.09 0.04 84 1006.8
20260902165527 60 0 0.0 2.0 0.00 0.09 0.04 85 1006.8
20260902165026 59 0 0.0 1.0 0.00 0.09 0.04 86 1006.8
20260902164556 59 0 0.0 1.0 0.00 0.09 0.04 85 1006.9
20260902164023 59 0 0.0 1.0 0.00 0.09 0.04 87 1007.0
20260902163523 58 0 0.0 1.0 0.00 0.09 0.04 88 1007.1
20260902163046 58 0 0.0 1.0 0.00 0.09 0.04 90 1007.0
20260902162522 58 0 0.0 1.0 0.00 0.09 0.04 90 1007.0
20260902162022 57 0 0.0 1.0 0.00 0.09 0.04 90 1007.2
20260902161547 57 0 0.0 1.0 0.00 0.09 0.04 89 1007.2
20260902161024 57 0 0.0 1.0 0.00 0.09 0.04 93 1007.2
20260902160527 57 0 0.0 1.0 0.00 0.09 0.04 93 1007.2
20260902160058 57 0 0.0 1.0 0.00 0.09 0.04 94 1007.3
20260902155526 56 0 0.0 1.0 0.00 0.09 0.04 94 1007.5
20260902155024 56 0 0.0 0.0 0.00 0.09 0.04 95 1007.4
20260902154551 56 0 0.0 0.0 0.00 0.09 0.04 95 1007.4
20260902154027 56 0 0.0 0.0 0.00 0.09 0.04 96 1007.5
20260902153523 56 0 0.0 1.0 0.00 0.09 0.04 96 1007.5
20260902153046 55 0 0.0 1.0 0.00 0.09 0.04 96 1007.6
20260902152523 55 0 0.0 2.0 0.00 0.09 0.04 97 1007.7
20260902152022 55 0 0.0 2.0 0.00 0.09 0.04 97 1007.7
20260902151552 55 194 0.0 1.0 0.00 0.09 0.04 97 1007.8
20260902151023 55 0 0.0 1.0 0.00 0.09 0.04 97 1008.0
20260902150524 55 0 0.0 1.0 0.00 0.09 0.04 97 1007.9
20260902150046 55 0 0.0 3.0 0.00 0.09 0.04 97 1008.0
20260902145524 55 0 0.0 3.0 0.00 0.09 0.04 97 1008.1
20260902145031 55 0 0.0 1.0 0.00 0.09 0.04 97 1008.4
20260902144548 55 0 0.0 1.0 0.00 0.09 0.04 97 1008.5
20260902144025 54 0 0.0 1.0 0.00 0.09 0.04 97 1008.5
20260902143525 54 213 0.0 1.0 0.00 0.09 0.04 97 1008.6
20260902143041 54 0 0.0 1.0 0.00 0.09 0.04 97 1008.6
20260902142528 54 0 0.0 1.0 0.00 0.09 0.04 97 1008.7
20260902142023 54 0 0.0 0.0 0.00 0.09 0.04 97 1008.7
20260902141605 54 0 0.0 0.0 0.00 0.09 0.04 97 1008.7
20260902141024 54 0 0.0 0.0 0.00 0.09 0.04 97 1008.7
20260902140523 54 0 0.0 0.0 0.00 0.09 0.04 97 1008.7
20260902140046 54 0 0.0 0.0 0.00 0.09 0.04 97 1008.6
20260902135528 54 0 0.0 0.0 0.00 0.09 0.04 97 1008.6
20260902135025 54 0 0.0 1.0 0.00 0.09 0.04 97 1008.6
20260902134545 54 0 0.0 1.0 0.00 0.09 0.04 97 1008.6
20260902134023 54 0 0.0 1.0 0.00 0.09 0.04 97 1008.6
20260902133525 54 0 0.0 0.0 0.00 0.09 0.04 97 1008.6
20260902133054 54 0 0.0 0.0 0.00 0.09 0.04 97 1008.7
20260902132525 54 0 0.0 0.0 0.00 0.09 0.04 97 1008.6
20260902132026 54 0 0.0 0.0 0.00 0.09 0.04 97 1008.6
20260902131550 54 0 0.0 0.0 0.00 0.09 0.04 97 1008.6
20260902131027 54 0 0.0 0.0 0.00 0.09 0.04 97 1008.6
20260902130523 54 0 0.0 0.0 0.00 0.09 0.04 97 1008.7
20260902130052 54 0 0.0 0.0 0.00 0.09 0.04 97 1008.7
20260902125526 54 0 0.0 0.0 0.00 0.09 0.04 97 1008.6
20260902125024 54 0 0.0 0.0 0.00 0.09 0.04 97 1008.7
20260902124600 54 0 0.0 1.0 0.00 0.09 0.04 97 1008.8
20260902124031 54 0 0.0 2.0 0.00 0.09 0.04 97 1008.8
20260902123525 54 0 0.0 2.0 0.00 0.09 0.04 97 1008.9
20260902123109 54 0 0.0 2.0 0.00 0.09 0.04 97 1008.9
20260902122524 54 132 0.0 2.0 0.00 0.09 0.04 97 1008.9
20260902122019 54 0 0.0 1.0 0.00 0.09 0.04 97 1009.0
20260902121553 54 0 0.0 1.0 0.00 0.09 0.04 97 1009.0
20260902121025 54 0 0.0 1.0 0.00 0.09 0.04 97 1009.1
20260902120524 54 0 0.0 0.0 0.00 0.09 0.04 96 1009.0
20260902120048 54 0 0.0 0.0 0.00 0.09 0.04 97 1009.0
20260902115525 54 0 0.0 0.0 0.00 0.09 0.04 97 1009.2
20260902115028 54 0 0.0 0.0 0.00 0.09 0.04 97 1009.1
20260902114548 54 0 0.0 0.0 0.00 0.09 0.04 96 1009.1
20260902114024 54 0 0.0 0.0 0.00 0.09 0.04 96 1009.2
20260902113524 55 0 0.0 0.0 0.01 0.09 0.04 96 1009.3
20260902113045 55 0 0.0 2.0 0.02 0.09 0.04 96 1009.3
20260902112524 55 0 0.0 2.0 0.02 0.09 0.04 96 1009.3
20260902112023 55 0 0.0 2.0 0.03 0.09 0.04 96 1009.5
20260902111555 55 0 0.0 0.0 0.03 0.09 0.04 96 1009.5
20260902111025 55 0 0.0 0.0 0.03 0.09 0.04 96 1009.5
20260902110528 55 0 0.0 0.0 0.03 0.09 0.04 97 1009.6
20260902110057 55 0 0.0 0.0 0.03 0.09 0.04 97 1009.6
20260902105524 55 0 0.0 0.0 0.03 0.09 0.04 96 1009.6
20260902105024 55 0 0.0 0.0 0.03 0.09 0.04 97 1009.6
20260902104545 55 0 0.0 1.0 0.03 0.09 0.04 97 1009.6
20260902104024 55 0 0.0 1.0 0.03 0.09 0.04 97 1009.7
20260902103523 55 0 0.0 1.0 0.02 0.08 0.03 97 1009.7
20260902103044 55 0 0.0 1.0 0.01 0.07 0.02 97 1009.7
20260902102528 55 0 0.0 2.0 0.01 0.07 0.02 97 1009.7
20260902102024 55 0 0.0 2.0 0.00 0.06 0.01 96 1009.8
20260902101553 55 0 0.0 1.0 0.00 0.06 0.01 97 1009.8
20260902101025 55 0 0.0 1.0 0.01 0.06 0.01 97 1009.8
20260902100524 55 0 0.0 1.0 0.01 0.06 0.01 97 1009.9
20260902100045 55 0 0.0 1.0 0.01 0.06 0.01 96 1009.9
20260902095522 55 0 0.0 1.0 0.01 0.06 0.01 96 1009.8
20260902095024 55 0 0.0 1.0 0.01 0.06 0.01 96 1009.9
20260902094549 55 0 0.0 0.0 0.01 0.06 0.01 96 1009.9
20260902094026 55 0 0.0 1.0 0.01 0.06 0.01 96 1009.9
20260902093525 55 0 0.0 1.0 0.01 0.06 0.01 96 1009.9
20260902093046 55 0 0.0 1.0 0.01 0.06 0.01 96 1010.0
20260902092526 55 0 0.0 0.0 0.01 0.06 0.01 96 1009.9
20260902092028 55 0 0.0 0.0 0.01 0.06 0.01 96 1009.9
20260902091600 55 0 0.0 0.0 0.01 0.06 0.01 96 1010.0
20260902091031 55 0 0.0 1.0 0.00 0.05 0.00 96 1009.9
20260902090526 55 0 0.0 2.0 0.00 0.05 0.00 96 1009.9
20260902090045 55 0 0.0 3.0 0.00 0.05 0.00 96 1009.8
20260902085524 55 0 1.0 3.0 0.00 0.05 0.00 96 1009.8
20260902085025 55 109 0.0 2.0 0.00 0.05 0.00 96 1009.8
20260902084548 55 0 0.0 2.0 0.00 0.05 0.00 96 1009.9
20260902084024 55 109 0.0 2.0 0.00 0.05 0.00 96 1010.0
20260902083527 55 128 0.0 2.0 0.00 0.05 0.00 96 1010.1
20260902083053 55 0 0.0 3.0 0.00 0.05 0.00 96 1010.2
20260902082523 55 0 0.0 3.0 0.00 0.05 0.00 96 1010.1
20260902082023 55 0 0.0 0.0 0.00 0.05 0.00 96 1010.4
20260902081546 55 0 0.0 0.0 0.00 0.05 0.00 96 1010.2
20260902081024 55 0 0.0 0.0 0.00 0.05 0.00 96 1010.4
20260902080525 55 0 0.0 0.0 0.00 0.05 0.00 96 1010.6
20260902080049 55 0 0.0 0.0 0.00 0.05 0.00 96 1010.7
20260902075522 55 0 0.0 0.0 0.00 0.05 0.00 96 1010.7
20260902075024 55 0 0.0 0.0 0.00 0.05 0.00 96 1010.7
20260902074544 55 0 0.0 0.0 0.00 0.05 0.00 96 1010.8
20260902074021 55 0 0.0 0.0 0.00 0.05 0.00 96 1010.8
20260902073527 55 0 0.0 0.0 0.00 0.05 0.00 96 1010.8
20260902073045 55 0 0.0 0.0 0.01 0.05 0.00 96 1010.7
20260902072526 55 0 0.0 0.0 0.01 0.05 0.00 96 1010.7
20260902072022 55 0 0.0 0.0 0.01 0.05 0.00 96 1010.6
20260902071553 55 0 0.0 0.0 0.01 0.05 0.00 96 1010.7
20260902071024 55 0 0.0 0.0 0.01 0.05 0.00 96 1010.9
20260902070522 55 0 0.0 1.0 0.01 0.05 0.00 96 1010.9
20260902070052 55 0 0.0 1.0 0.02 0.05 0.00 96 1010.9
20260902065526 55 0 0.0 1.0 0.02 0.05 0.05 96 1011.0
20260902065021 55 0 0.0 3.0 0.02 0.05 0.05 96 1011.0
20260902064547 55 0 0.0 3.0 0.02 0.05 0.05 96 1011.1
20260902064022 55 111 1.0 3.0 0.02 0.05 0.05 96 1011.2
20260902063527 55 0 0.0 1.0 0.01 0.04 0.04 96 1011.2
20260902063042 55 0 0.0 0.0 0.01 0.04 0.04 96 1011.0
20260902062523 55 0 0.0 0.0 0.01 0.04 0.04 96 1011.0
20260902062023 55 0 0.0 0.0 0.01 0.04 0.04 96 1011.0
20260902061613 55 0 0.0 1.0 0.01 0.04 0.04 96 1011.0
20260902061025 55 0 0.0 1.0 0.01 0.04 0.04 96 1011.1
20260902060527 55 0 0.0 1.0 0.01 0.04 0.04 96 1011.0
20260902060056 55 0 0.0 1.0 0.00 0.03 0.03 96 1011.1
20260902055526 55 0 0.0 1.0 0.00 0.03 0.03 96 1011.0
20260902055021 55 0 0.0 1.0 0.00 0.03 0.03 95 1011.1
20260902054546 55 0 0.0 0.0 0.00 0.03 0.03 95 1011.1
20260902054022 55 0 0.0 1.0 0.00 0.03 0.03 95 1011.0
20260902053524 56 0 0.0 1.0 0.00 0.03 0.03 95 1011.1
20260902053045 56 0 0.0 1.0 0.00 0.03 0.03 95 1011.2
20260902052527 56 0 0.0 2.0 0.00 0.03 0.03 95 1011.2
20260902052024 56 0 0.0 2.0 0.00 0.03 0.03 95 1011.2
20260902051553 56 0 0.0 2.0 0.00 0.03 0.03 95 1011.2
20260902051024 56 182 0.0 2.0 0.01 0.03 0.03 95 1011.3
20260902050521 56 111 0.0 4.0 0.01 0.03 0.03 95 1011.4
20260902050050 56 0 0.0 5.0 0.01 0.03 0.03 95 1011.2
20260902045530 56 0 0.0 5.0 0.02 0.03 0.03 95 1011.4
20260902045025 56 0 0.0 3.0 0.02 0.03 0.03 95 1011.3
20260902044547 56 0 0.0 3.0 0.02 0.03 0.03 95 1011.4
20260902044026 56 0 0.0 3.0 0.02 0.03 0.03 95 1011.4
20260902043524 56 165 0.0 2.0 0.02 0.03 0.03 95 1011.4
20260902043046 56 0 0.0 2.0 0.02 0.03 0.03 95 1011.5
20260902042526 56 0 0.0 7.0 0.03 0.03 0.03 95 1011.4
20260902042025 56 0 1.0 7.0 0.03 0.03 0.03 95 1011.5
20260902041553 56 122 0.0 2.0 0.03 0.03 0.03 95 1011.4
20260902041022 56 0 0.0 0.0 0.02 0.02 0.02 95 1011.5
20260902040524 56 0 0.0 1.0 0.02 0.02 0.02 95 1011.5
20260902040052 57 0 0.0 1.0 0.02 0.02 0.02 95 1011.4
20260902035528 56 0 0.0 0.0 0.01 0.01 0.01 95 1011.2
20260902035024 56 0 0.0 0.0 0.01 0.01 0.01 95 1011.2
20260902034547 56 0 0.0 0.0 0.01 0.01 0.01 95 1011.2
20260902034021 56 0 0.0 0.0 0.01 0.01 0.01 95 1011.2
20260902033526 56 0 0.0 0.0 0.01 0.01 0.01 95 1011.2
20260902033047 57 0 0.0 0.0 0.01 0.01 0.01 95 1011.2
20260902032522 57 0 0.0 0.0 0.00 0.00 0.00 95 1011.2
20260902032030 57 0 0.0 0.0 0.00 0.00 0.00 95 1011.2
20260902031545 56 0 0.0 0.0 0.00 0.00 0.00 95 1011.0
20260902031024 56 0 0.0 0.0 0.00 0.00 0.00 95 1010.9
20260902030522 56 0 0.0 0.0 0.00 0.00 0.00 95 1010.9
20260902030051 56 0 0.0 0.0 0.00 0.00 0.00 95 1010.9
20260902025524 56 0 0.0 0.0 0.00 0.00 0.00 95 1010.8
20260902025026 56 0 0.0 1.0 0.00 0.00 0.00 94 1010.8
20260902024548 56 0 0.0 1.0 0.00 0.00 0.00 94 1010.8
20260902024025 57 0 0.0 1.0 0.00 0.00 0.00 94 1010.8
20260902023524 57 0 0.0 1.0 0.00 0.00 0.00 94 1010.9
20260902023045 57 0 0.0 0.0 0.00 0.00 0.00 94 1010.8
20260902022530 57 0 0.0 0.0 0.00 0.00 0.00 94 1010.9
20260902022025 57 0 0.0 0.0 0.00 0.00 0.00 94 1010.8
20260902021544 57 0 0.0 0.0 0.00 0.00 0.00 94 1011.0
20260902021025 57 0 0.0 1.0 0.00 0.00 0.00 94 1011.0
20260902020523 57 0 0.0 1.0 0.00 0.00 0.00 94 1011.0
20260902020051 57 0 0.0 1.0 0.00 0.00 0.00 94 1011.0
20260902015524 57 0 0.0 3.0 0.00 0.00 0.00 94 1011.0
20260902015023 57 0 0.0 3.0 0.00 0.00 0.00 93 1010.9
20260902014550 57 0 0.0 3.0 0.00 0.00 0.00 93 1011.0
20260902014025 57 0 0.0 3.0 0.00 0.00 0.00 93 1011.0
20260902013526 57 0 0.0 2.0 0.00 0.00 0.00 93 1011.0
20260902013045 57 0 0.0 2.0 0.00 0.00 0.00 93 1010.9
20260902012526 57 0 0.0 1.0 0.00 0.00 0.00 94 1010.9
20260902012028 57 0 0.0 4.0 0.00 0.00 0.00 93 1010.8
20260902011545 57 0 0.0 4.0 0.00 0.00 0.00 93 1010.9
20260902011023 57 126 0.0 3.0 0.00 0.00 0.00 93 1010.8
20260902010522 57 113 0.0 3.0 0.00 0.00 0.00 93 1010.9
20260902010043 57 0 0.0 3.0 0.00 0.00 0.00 93 1010.8
20260902005524 58 0 0.0 3.0 0.00 0.00 0.00 93 1010.9
20260902005024 58 0 0.0 2.0 0.00 0.00 0.00 94 1010.9
20260902004552 57 0 0.0 2.0 0.00 0.00 0.00 94 1010.8
20260902004031 57 0 0.0 3.0 0.00 0.00 0.00 94 1010.8
20260902003522 57 123 0.0 3.0 0.00 0.00 0.00 94 1010.9
20260902003047 57 147 0.0 3.0 0.00 0.00 0.00 94 1010.9
20260902002521 57 0 0.0 2.0 0.00 0.00 0.00 94 1010.9
20260902002031 57 0 0.0 3.0 0.00 0.00 0.00 93 1010.9
20260902001545 57 0 0.0 3.0 0.00 0.00 0.00 93 1010.9
20260902001023 58 0 0.0 2.0 0.00 0.00 0.00 93 1011.0
20260902000525 57 0 0.0 4.0 0.00 0.00 0.00 92 1011.0
20260902000051 58 0 1.0 4.0 0.00 0.00 0.00 92 1010.9
20260901235525 58 130 0.0 2.0 0.00 0.00 0.00 92 1010.9
20260901235023 58 0 0.0 2.0 0.00 0.00 0.00 91 1010.9
20260901234552 58 0 0.0 3.0 0.00 0.00 0.00 90 1011.0
20260901234023 58 0 0.0 4.0 0.00 0.00 0.00 89 1011.0
20260901233529 59 204 0.0 4.0 0.00 0.00 0.00 89 1010.9
20260901233048 59 200 0.0 4.0 0.00 0.00 0.00 89 1010.8
20260901232522 59 0 0.0 2.0 0.00 0.00 0.00 88 1010.8
20260901232025 59 0 0.0 3.0 0.00 0.00 0.00 88 1010.8
20260901231546 60 169 0.0 3.0 0.00 0.00 0.00 86 1010.7
20260901231024 60 0 0.0 3.0 0.00 0.00 0.00 85 1010.7
20260901230526 60 0 0.0 3.0 0.00 0.00 0.00 85 1010.7
20260901230051 60 0 0.0 3.0 0.00 0.00 0.00 85 1010.7
20260901225524 60 244 0.0 4.0 0.00 0.00 0.00 85 1010.8
20260901225024 60 0 1.0 5.0 0.00 0.00 0.00 86 1010.8
20260901224544 60 0 0.0 5.0 0.00 0.00 0.00 86 1010.7
20260901224024 60 0 0.0 4.0 0.00 0.00 0.00 87 1010.8
20260901223521 60 0 0.0 4.0 0.00 0.00 0.00 86 1010.8
20260901223106 60 0 1.0 6.0 0.00 0.00 0.00 84 1010.9
20260901222523 60 113 0.0 6.0 0.00 0.00 0.00 83 1010.8
20260901222023 60 166 0.0 5.0 0.00 0.00 0.00 84 1010.8
20260901221549 61 0 0.0 4.0 0.00 0.00 0.00 83 1010.8
20260901221024 61 0 0.0 3.0 0.00 0.00 0.00 85 1010.8
20260901220524 60 0 0.0 3.0 0.00 0.00 0.00 84 1010.7
20260901220050 60 0 0.0 7.0 0.00 0.00 0.00 84 1010.8
20260901215527 61 121 1.0 7.0 0.00 0.00 0.00 83 1010.7
20260901215025 61 0 0.0 4.0 0.00 0.00 0.00 82 1010.7
20260901214551 61 114 1.0 3.0 0.00 0.00 0.00 81 1010.6
20260901214026 61 0 1.0 6.0 0.00 0.00 0.00 80 1010.6
20260901213523 61 123 0.0 6.0 0.00 0.00 0.00 81 1010.5
20260901213043 61 111 2.0 7.0 0.00 0.00 0.00 81 1010.7
20260901212521 61 103 2.0 7.0 0.00 0.00 0.00 81 1010.8
20260901212028 61 106 1.0 6.0 0.00 0.00 0.00 81 1010.7
20260901211539 61 132 1.0 6.0 0.00 0.00 0.00 82 1010.8